,,Stat1,,Stat2,,Stat3,,Stat4,,Wind1,,Wind1,
time,status,PR1M_SUM,status,RH1M_AVG,status,SR1M_AVG,status,TA1M_AVG,status,W1dAve1m,status,W1sAve1m,
1999-10-26, 00:00:00,VALID,0,VALID,100,VALID,0.0339617,VALID,18.7176,VALID,59,VALID,0,
1999-10-26, 00:01:00,VALID,0,VALID,100,VALID,0.0849042,VALID,18.7269,VALID,59,VALID,0,
1999-10-26, 00:02:00,VALID,0,VALID,100,VALID,0.0509425,VALID,18.7299,VALID,59,VALID,0,
1999-10-26, 00:03:00,VALID,0,VALID,100,VALID,0.0679233,VALID,18.7266,VALID,59,VALID,0,
1999-10-26, 00:04:00,VALID,0,VALID,100,VALID,0.0679233,VALID,18.7234,VALID,59,VALID,0,
1999-10-26, 00:05:00,VALID,0,VALID,100,VALID,0.0849042,VALID,18.7301,VALID,59,VALID,0,
1999-10-26, 00:06:00,VALID,0.2,VALID,100,VALID,0.0679233,VALID,18.7266,VALID,59,VALID,0,
1999-10-26, 00:07:00,VALID,0,VALID,100,VALID,0.0169808,VALID,18.7303,VALID,59,VALID,0,
1999-10-26, 00:08:01,VALID,0,VALID,100,VALID,0.0509425,VALID,18.7135,VALID,59,VALID,0,
1999-10-26, 00:09:00,VALID,0,VALID,100,VALID,0.0339617,VALID,18.7269,VALID,59,VALID,0,
1999-10-26, 00:10:00,VALID,0,VALID,100,VALID,0.0849042,VALID,18.7135,VALID,59,VALID,0,
1999-10-26, 00:11:00,VALID,0,VALID,100,VALID,0.101885,VALID,18.7236,VALID,61,VALID,0,
1999-10-26, 00:12:00,VALID,0,VALID,100,VALID,0.0679233,VALID,18.7137,VALID,83,VALID,0,
1999-10-26, 00:13:00,VALID,0,VALID,100,VALID,0.0849042,VALID,18.7135,VALID,86,VALID,0,
1999-10-26, 00:14:00,VALID,0,VALID,100,VALID,0.0849042,VALID,18.7102,VALID,86,VALID,0,
1999-10-26, 00:15:00,VALID,0,VALID,100,VALID,0.0679233,VALID,18.7072,VALID,101,VALID,0,
1999-10-26, 00:16:00,VALID,0,VALID,100,VALID,-0.0339617,VALID,18.7052,VALID,115,VALID,0,
1999-10-26, 00:17:00,VALID,0,VALID,100,VALID,-0.0339617,VALID,18.6989,VALID,106,VALID,0,
1999-10-26, 00:18:00,VALID,0,VALID,100,VALID,-0.0339617,VALID,18.6922,VALID,107,VALID,0,
1999-10-26, 00:19:00,VALID,0,VALID,100,VALID,-0.0679233,VALID,18.6959,VALID,107,VALID,0,
1999-10-26, 00:20:01,VALID,0,VALID,100,VALID,-0.0169808,VALID,18.6922,VALID,107,VALID,0,
1999-10-26, 00:21:00,VALID,0,VALID,100,VALID,-0.0169808,VALID,18.6828,VALID,107,VALID,0,
1999-10-26, 00:22:00,VALID,0,VALID,100,VALID,-0.0509425,VALID,18.6895,VALID,105,VALID,0,
1999-10-26, 00:23:00,VALID,0,VALID,100,VALID,-0.0509425,VALID,18.7024,VALID,104,VALID,0,
1999-10-26, 00:24:00,VALID,0,VALID,100,VALID,-0.0509425,VALID,18.7024,VALID,104,VALID,0,
1999-10-26, 00:25:00,VALID,0,VALID,100,VALID,-0.0849042,VALID,18.7059,VALID,104,VALID,0,
1999-10-26, 00:26:00,VALID,0,VALID,100,VALID,-0.0679233,VALID,18.6957,VALID,104,VALID,0,
1999-10-26, 00:27:00,VALID,0,VALID,100,VALID,-0.0509425,VALID,18.686,VALID,104,VALID,0,
1999-10-26, 00:28:00,VALID,0,VALID,100,VALID,-0.0849042,VALID,18.6761,VALID,104,VALID,0,
1999-10-26, 00:29:00,VALID,0,VALID,100,VALID,-0.0679233,VALID,18.6832,VALID,104,VALID,0,
1999-10-26, 00:30:00,VALID,0,VALID,100,VALID,-0.0849042,VALID,18.6768,VALID,104,VALID,0,
1999-10-26, 00:31:00,VALID,0,VALID,100,VALID,-0.0509425,VALID,18.6705,VALID,104,VALID,0,
1999-10-26, 00:32:00,VALID,0,VALID,100,VALID,-0.0849042,VALID,18.6705,VALID,100,VALID,0,
1999-10-26, 00:33:00,VALID,0,VALID,100,VALID,-0.0509425,VALID,18.6929,VALID,92,VALID,0,
1999-10-26, 00:34:00,VALID,0,VALID,100,VALID,-0.0849042,VALID,18.6994,VALID,92,VALID,0,
1999-10-26, 00:35:00,VALID,0,VALID,100,VALID,-0.0679233,VALID,18.7123,VALID,92,VALID,0,
1999-10-26, 00:36:00,VALID,0,VALID,100,VALID,-0.0509425,VALID,18.7056,VALID,82,VALID,0.174679,
1999-10-26, 00:37:00,VALID,0,VALID,100,VALID,-0.0339617,VALID,18.7086,VALID,91,VALID,0.436867,
1999-10-26, 00:38:00,VALID,0,VALID,100,VALID,-0.0849042,VALID,18.7056,VALID,92,VALID,0.579883,
1999-10-26, 00:39:00,VALID,0,VALID,100,VALID,-0.0679233,VALID,18.7156,VALID,78,VALID,0.652148,
1999-10-26, 00:40:00,VALID,0,VALID,100,VALID,-0.0509425,VALID,18.7285,VALID,89,VALID,0.686632,
1999-10-26, 00:41:00,VALID,0,VALID,100,VALID,-0.0339617,VALID,18.7345,VALID,84,VALID,0.866776,
1999-10-26, 00:42:00,VALID,0,VALID,100,VALID,-0.0169808,VALID,18.7414,VALID,81,VALID,0.587139,
1999-10-26, 00:43:00,VALID,0,VALID,100,VALID,-0.0679233,VALID,18.7576,VALID,82,VALID,0.657728,
1999-10-26, 00:44:00,VALID,0,VALID,100,VALID,-0.0169808,VALID,18.7544,VALID,80,VALID,0.171094,
1999-10-26, 00:45:00,VALID,0,VALID,100,VALID,-0.0339617,VALID,18.7576,VALID,81,VALID,0,
1999-10-26, 00:46:00,VALID,0,VALID,100,VALID,0.0849042,VALID,18.7657,VALID,81,VALID,0,
1999-10-26, 00:47:00,VALID,0,VALID,100,VALID,0.0509425,VALID,18.7724,VALID,78,VALID,0.186266,
1999-10-26, 00:48:00,VALID,0,VALID,100,VALID,0.0339617,VALID,18.7724,VALID,84,VALID,0.471154,
1999-10-26, 00:49:00,VALID,0,VALID,100,VALID,0.0339617,VALID,18.7463,VALID,84,VALID,0.212838,
1999-10-26, 00:50:00,VALID,0,VALID,100,VALID,0.0679233,VALID,18.7527,VALID,93,VALID,0,
1999-10-26, 00:51:00,VALID,0,VALID,100,VALID,0.0509425,VALID,18.7495,VALID,96,VALID,0,
1999-10-26, 00:52:01,VALID,0,VALID,100,VALID,0.0849042,VALID,18.7331,VALID,99,VALID,0,
1999-10-26, 00:53:00,VALID,0,VALID,100,VALID,0.0509425,VALID,18.7368,VALID,91,VALID,0.711554,
1999-10-26, 00:54:00,VALID,0,VALID,100,VALID,0.0169808,VALID,18.737,VALID,89,VALID,0.949119,
1999-10-26, 00:55:00,VALID,0,VALID,100,VALID,0.0339617,VALID,18.7368,VALID,97,VALID,0.722762,
1999-10-26, 00:56:00,VALID,0,VALID,100,VALID,0.0509425,VALID,18.7398,VALID,95,VALID,0.413867,
1999-10-26, 00:57:00,VALID,0,VALID,100,VALID,0.0509425,VALID,18.7299,VALID,94,VALID,0.0345703,
1999-10-26, 00:58:00,VALID,0,VALID,100,VALID,0.0339617,VALID,18.7405,VALID,94,VALID,0,
1999-10-26, 00:59:00,VALID,0,VALID,100,VALID,0.0509425,VALID,18.7269,VALID,82,VALID,0,
1999-10-26, 01:00:00,VALID,0,VALID,100,VALID,0.0509425,VALID,18.7368,VALID,77,VALID,0,
1999-10-26, 01:01:00,VALID,0,VALID,100,VALID,-0.0509425,VALID,18.728,VALID,101,VALID,0,
1999-10-26, 01:02:00,VALID,0,VALID,100,VALID,-0.0509425,VALID,18.7347,VALID,103,VALID,0,
1999-10-26, 01:03:00,VALID,0,VALID,100,VALID,-0.0509425,VALID,18.7248,VALID,74,VALID,0.375391,
1999-10-26, 01:04:01,VALID,0,VALID,100,VALID,-0.0339617,VALID,18.7218,VALID,74,VALID,0.606554,
1999-10-26, 01:05:00,VALID,0,VALID,100,VALID,0,VALID,18.7183,VALID,73,VALID,0.607525,
1999-10-26, 01:06:00,VALID,0,VALID,100,VALID,-0.0339617,VALID,18.7119,VALID,69,VALID,0.430689,
1999-10-26, 01:07:00,VALID,0,VALID,100,VALID,-0.0169808,VALID,18.7084,VALID,77,VALID,0.294341,
1999-10-26, 01:08:00,VALID,0,VALID,100,VALID,-0.0339617,VALID,18.7119,VALID,89,VALID,0.494336,
1999-10-26, 01:09:00,VALID,0,VALID,100,VALID,-0.0509425,VALID,18.7156,VALID,99,VALID,0.445313,
1999-10-26, 01:10:00,VALID,0,VALID,100,VALID,-0.0679233,VALID,18.7188,VALID,116,VALID,0.0954861,
1999-10-26, 01:11:00,VALID,0,VALID,100,VALID,-0.0339617,VALID,18.7019,VALID,116,VALID,0,
1999-10-26, 01:12:00,VALID,0,VALID,100,VALID,-0.0169808,VALID,18.7089,VALID,116,VALID,0,
1999-10-26, 01:13:00,VALID,0,VALID,100,VALID,-0.0169808,VALID,18.6955,VALID,116,VALID,0,
1999-10-26, 01:14:01,VALID,0,VALID,100,VALID,-0.0339617,VALID,18.6959,VALID,116,VALID,0,
1999-10-26, 01:15:01,VALID,0,VALID,100,VALID,-0.0339617,VALID,18.7054,VALID,116,VALID,0,
1999-10-26, 01:16:00,VALID,0,VALID,100,VALID,-0.0169808,VALID,18.7022,VALID,116,VALID,0,
1999-10-26, 01:17:00,VALID,0,VALID,100,VALID,-0.0679233,VALID,18.7022,VALID,116,VALID,0,
1999-10-26, 01:18:00,VALID,0,VALID,100,VALID,0,VALID,18.7022,VALID,116,VALID,0,
1999-10-26, 01:19:00,VALID,0,VALID,100,VALID,-0.0509425,VALID,18.6865,VALID,116,VALID,0,
1999-10-26, 01:20:00,VALID,0,VALID,100,VALID,-0.0169808,VALID,18.6733,VALID,116,VALID,0,
1999-10-26, 01:21:00,VALID,0,VALID,100,VALID,-0.0679233,VALID,18.6601,VALID,116,VALID,0,
1999-10-26, 01:22:00,VALID,0,VALID,100,VALID,-0.0679233,VALID,18.6608,VALID,116,VALID,0,
1999-10-26, 01:23:00,VALID,0,VALID,100,VALID,-0.0169808,VALID,18.6444,VALID,110,VALID,0,
1999-10-26, 01:24:00,VALID,0,VALID,100,VALID,-0.0339617,VALID,18.6474,VALID,77,VALID,0,
1999-10-26, 01:25:00,VALID,0,VALID,100,VALID,-0.0169808,VALID,18.6444,VALID,77,VALID,0,
1999-10-26, 01:26:01,VALID,0,VALID,100,VALID,-0.0339617,VALID,18.6507,VALID,76,VALID,0,
1999-10-26, 01:27:00,VALID,0,VALID,100,VALID,-0.0509425,VALID,18.6671,VALID,76,VALID,0,
1999-10-26, 01:28:00,VALID,0,VALID,100,VALID,-0.0169808,VALID,18.6636,VALID,76,VALID,0,
1999-10-26, 01:29:00,VALID,0,VALID,100,VALID,-0.0849042,VALID,18.6768,VALID,74,VALID,0,
1999-10-26, 01:30:00,VALID,0,VALID,100,VALID,-0.0509425,VALID,18.6802,VALID,70,VALID,0,
1999-10-26, 01:31:00,VALID,0,VALID,100,VALID,-0.0169808,VALID,18.6701,VALID,70,VALID,0,
1999-10-26, 01:32:00,VALID,0,VALID,100,VALID,-0.0169808,VALID,18.6696,VALID,70,VALID,0,
1999-10-26, 01:33:00,VALID,0,VALID,100,VALID,0,VALID,18.677,VALID,70,VALID,0,
1999-10-26, 01:34:00,VALID,0,VALID,100,VALID,-0.0509425,VALID,18.6668,VALID,70,VALID,0,
1999-10-26, 01:35:00,VALID,0,VALID,100,VALID,-0.0169808,VALID,18.6604,VALID,70,VALID,0,
1999-10-26, 01:36:00,VALID,0,VALID,100,VALID,-0.0169808,VALID,18.6733,VALID,70,VALID,0,
1999-10-26, 01:37:01,VALID,0,VALID,100,VALID,0,VALID,18.6731,VALID,70,VALID,0,
1999-10-26, 01:38:00,VALID,0,VALID,100,VALID,-0.0339617,VALID,18.6738,VALID,70,VALID,0,
1999-10-26, 01:39:00,VALID,0,VALID,100,VALID,-0.0339617,VALID,18.6636,VALID,70,VALID,0,
1999-10-26, 01:40:00,VALID,0,VALID,100,VALID,-0.0169808,VALID,18.6502,VALID,70,VALID,0,
1999-10-26, 01:41:00,VALID,0,VALID,100,VALID,-0.0169808,VALID,18.6509,VALID,70,VALID,0,
1999-10-26, 01:42:00,VALID,0,VALID,100,VALID,-0.0339617,VALID,18.6474,VALID,70,VALID,0,
1999-10-26, 01:43:00,VALID,0,VALID,100,VALID,-0.0339617,VALID,18.6548,VALID,70,VALID,0,
1999-10-26, 01:44:00,VALID,0,VALID,100,VALID,-0.0169808,VALID,18.6213,VALID,226,VALID,0,
1999-10-26, 01:45:00,VALID,0,VALID,100,VALID,-0.0339617,VALID,18.592,VALID,237,VALID,0,
1999-10-26, 01:46:00,VALID,0,VALID,100,VALID,-0.0679233,VALID,18.5701,VALID,238,VALID,0,
1999-10-26, 01:47:00,VALID,0,VALID,100,VALID,-0.0509425,VALID,18.5442,VALID,238,VALID,0.180921,
1999-10-26, 01:48:01,VALID,0,VALID,100,VALID,-0.0339617,VALID,18.531,VALID,237,VALID,0.586538,
1999-10-26, 01:49:00,VALID,0,VALID,100,VALID,-0.0169808,VALID,18.525,VALID,249,VALID,0.670397,
1999-10-26, 01:50:00,VALID,0,VALID,100,VALID,0,VALID,18.4985,VALID,250,VALID,0.583398,
1999-10-26, 01:51:00,VALID,0,VALID,100,VALID,0.0169808,VALID,18.4888,VALID,244,VALID,0.314453,
1999-10-26, 01:52:00,VALID,0,VALID,100,VALID,-0.0169808,VALID,18.5116,VALID,242,VALID,0.337674,
1999-10-26, 01:53:00,VALID,0,VALID,100,VALID,0,VALID,18.5019,VALID,232,VALID,0,
1999-10-26, 01:54:00,VALID,0,VALID,100,VALID,-0.0169808,VALID,18.5047,VALID,204,VALID,0,
1999-10-26, 01:55:00,VALID,0,VALID,100,VALID,-0.0339617,VALID,18.525,VALID,196,VALID,0.10663,
1999-10-26, 01:56:00,VALID,0,VALID,100,VALID,0,VALID,18.5315,VALID,195,VALID,0,
1999-10-26, 01:57:00,VALID,0,VALID,100,VALID,-0.0339617,VALID,18.5246,VALID,197,VALID,0,
1999-10-26, 01:58:01,VALID,0,VALID,100,VALID,0,VALID,18.5243,VALID,210,VALID,0,
1999-10-26, 01:59:01,VALID,0,VALID,100,VALID,-0.0169808,VALID,18.5216,VALID,209,VALID,0,
1999-10-26, 02:00:00,VALID,0,VALID,100,VALID,-0.0509425,VALID,18.5343,VALID,209,VALID,0,
1999-10-26, 02:01:00,VALID,0,VALID,100,VALID,-0.0339617,VALID,18.5636,VALID,208,VALID,0,
1999-10-26, 02:02:00,VALID,0,VALID,100,VALID,-0.0509425,VALID,18.544,VALID,160,VALID,0,
1999-10-26, 02:03:00,VALID,0,VALID,100,VALID,-0.0169808,VALID,18.5283,VALID,174,VALID,0,
1999-10-26, 02:04:00,VALID,0,VALID,100,VALID,-0.0339617,VALID,18.544,VALID,183,VALID,0,
1999-10-26, 02:05:00,VALID,0,VALID,100,VALID,-0.0339617,VALID,18.5578,VALID,171,VALID,0,
1999-10-26, 02:06:00,VALID,0,VALID,100,VALID,-0.0509425,VALID,18.5313,VALID,138,VALID,0,
1999-10-26, 02:07:00,VALID,0,VALID,100,VALID,-0.0509425,VALID,18.486,VALID,121,VALID,0,
1999-10-26, 02:08:01,VALID,0,VALID,100,VALID,-0.0339617,VALID,18.4567,VALID,135,VALID,0,
1999-10-26, 02:09:00,VALID,0,VALID,100,VALID,-0.0509425,VALID,18.4897,VALID,141,VALID,0.521289,
1999-10-26, 02:10:01,VALID,0,VALID,100,VALID,-0.0509425,VALID,18.5123,VALID,143,VALID,0.547309,
1999-10-26, 02:11:00,VALID,0,VALID,100,VALID,-0.0509425,VALID,18.5188,VALID,142,VALID,0.258429,
1999-10-26, 02:12:00,VALID,0,VALID,100,VALID,-0.0849042,VALID,18.4925,VALID,141,VALID,0.199119,
1999-10-26, 02:13:00,VALID,0,VALID,100,VALID,-0.0339617,VALID,18.4768,VALID,141,VALID,0.0988176,
1999-10-26, 02:14:00,VALID,0,VALID,100,VALID,0,VALID,18.4569,VALID,141,VALID,0,
1999-10-26, 02:15:00,VALID,0,VALID,100,VALID,-0.0339617,VALID,18.4539,VALID,124,VALID,0.0466797,
1999-10-26, 02:16:00,VALID,0,VALID,100,VALID,-0.0169808,VALID,18.4858,VALID,6,VALID,0.0273438,
1999-10-26, 02:17:00,VALID,0,VALID,100,VALID,0,VALID,18.5022,VALID,347,VALID,0,
1999-10-26, 02:18:00,VALID,0,VALID,100,VALID,-0.0339617,VALID,18.5283,VALID,341,VALID,0,
1999-10-26, 02:19:00,VALID,0,VALID,100,VALID,-0.0169808,VALID,18.5539,VALID,341,VALID,0,
1999-10-26, 02:20:01,VALID,0,VALID,100,VALID,-0.0169808,VALID,18.5537,VALID,359,VALID,0,
1999-10-26, 02:21:01,VALID,0,VALID,100,VALID,0,VALID,18.5666,VALID,66,VALID,0,
1999-10-26, 02:22:00,VALID,0,VALID,100,VALID,0.0169808,VALID,18.5502,VALID,48,VALID,0,
1999-10-26, 02:23:00,VALID,0,VALID,100,VALID,0,VALID,18.5271,VALID,54,VALID,0,
1999-10-26, 02:24:00,VALID,0,VALID,100,VALID,0,VALID,18.5114,VALID,103,VALID,0,
1999-10-26, 02:25:00,VALID,0,VALID,100,VALID,-0.0169808,VALID,18.519,VALID,103,VALID,0,
1999-10-26, 02:26:00,VALID,0,VALID,100,VALID,-0.0339617,VALID,18.5213,VALID,56,VALID,0,
1999-10-26, 02:27:00,VALID,0,VALID,100,VALID,-0.0339617,VALID,18.541,VALID,304,VALID,0,
1999-10-26, 02:28:00,VALID,0,VALID,100,VALID,-0.0339617,VALID,18.5474,VALID,297,VALID,0,
1999-10-26, 02:29:00,VALID,0,VALID,100,VALID,0,VALID,18.5407,VALID,297,VALID,0,
1999-10-26, 02:30:00,VALID,0,VALID,100,VALID,-0.0169808,VALID,18.5079,VALID,297,VALID,0,
1999-10-26, 02:31:00,VALID,0,VALID,100,VALID,0,VALID,18.5052,VALID,297,VALID,0,
1999-10-26, 02:32:00,VALID,0,VALID,100,VALID,0,VALID,18.489,VALID,294,VALID,0,
1999-10-26, 02:33:00,VALID,0,VALID,100,VALID,0,VALID,18.4795,VALID,269,VALID,0,
1999-10-26, 02:34:00,VALID,0,VALID,100,VALID,0.0169808,VALID,18.45,VALID,269,VALID,0,
1999-10-26, 02:35:00,VALID,0,VALID,100,VALID,0,VALID,18.4405,VALID,268,VALID,0,
1999-10-26, 02:36:00,VALID,0,VALID,100,VALID,-0.0169808,VALID,18.4209,VALID,240,VALID,0,
1999-10-26, 02:37:00,VALID,0,VALID,100,VALID,0.0169808,VALID,18.434,VALID,219,VALID,0,
1999-10-26, 02:38:00,VALID,0,VALID,100,VALID,0,VALID,18.4504,VALID,201,VALID,0,
1999-10-26, 02:39:00,VALID,0,VALID,100,VALID,0.0169808,VALID,18.4333,VALID,201,VALID,0,
1999-10-26, 02:40:00,VALID,0,VALID,100,VALID,-0.0169808,VALID,18.4273,VALID,201,VALID,0,
1999-10-26, 02:41:00,VALID,0,VALID,100,VALID,-0.0169808,VALID,18.4186,VALID,168,VALID,0,
1999-10-26, 02:42:00,VALID,0,VALID,100,VALID,0,VALID,18.3752,VALID,157,VALID,0,
1999-10-26, 02:43:00,VALID,0,VALID,100,VALID,0.0169808,VALID,18.4144,VALID,141,VALID,0.39886,
1999-10-26, 02:44:00,VALID,0,VALID,100,VALID,-0.0169808,VALID,18.4308,VALID,137,VALID,0.814062,
1999-10-26, 02:45:00,VALID,0,VALID,100,VALID,0,VALID,18.4403,VALID,130,VALID,0.707227,
1999-10-26, 02:46:00,VALID,0,VALID,100,VALID,-0.0849042,VALID,18.4091,VALID,128,VALID,0.616536,
1999-10-26, 02:47:00,VALID,0,VALID,100,VALID,-0.101885,VALID,18.3705,VALID,131,VALID,0.588816,
1999-10-26, 02:48:00,VALID,0,VALID,100,VALID,-0.101885,VALID,18.4029,VALID,134,VALID,0.640825,
1999-10-26, 02:49:00,VALID,0,VALID,100,VALID,-0.0849042,VALID,18.4089,VALID,136,VALID,0.603041,
1999-10-26, 02:50:00,VALID,0,VALID,100,VALID,-0.101885,VALID,18.4317,VALID,138,VALID,0.325,
1999-10-26, 02:51:00,VALID,0,VALID,100,VALID,-0.101885,VALID,18.432,VALID,138,VALID,0,
1999-10-26, 02:52:01,VALID,0,VALID,100,VALID,-0.0849042,VALID,18.4417,VALID,138,VALID,0,
1999-10-26, 02:53:00,VALID,0,VALID,100,VALID,-0.0849042,VALID,18.432,VALID,144,VALID,0,
1999-10-26, 02:54:00,VALID,0,VALID,100,VALID,-0.101885,VALID,18.4283,VALID,145,VALID,0,
1999-10-26, 02:55:00,VALID,0,VALID,100,VALID,-0.0849042,VALID,18.4354,VALID,145,VALID,0,
1999-10-26, 02:56:00,VALID,0,VALID,100,VALID,-0.0849042,VALID,18.4253,VALID,145,VALID,0,
1999-10-26, 02:57:00,VALID,0,VALID,100,VALID,-0.0679233,VALID,18.3992,VALID,147,VALID,0,
1999-10-26, 02:58:00,VALID,0,VALID,100,VALID,-0.0849042,VALID,18.3959,VALID,151,VALID,0,
1999-10-26, 02:59:00,VALID,0,VALID,100,VALID,-0.101885,VALID,18.3807,VALID,168,VALID,0,
1999-10-26, 03:00:00,VALID,0,VALID,100,VALID,-0.0339617,VALID,18.3576,VALID,168,VALID,0,
1999-10-26, 03:01:00,VALID,0,VALID,100,VALID,-0.0679233,VALID,18.3613,VALID,190,VALID,0,
1999-10-26, 03:02:00,VALID,0,VALID,100,VALID,-0.0849042,VALID,18.3223,VALID,208,VALID,0,
1999-10-26, 03:03:00,VALID,0,VALID,100,VALID,-0.0849042,VALID,18.2994,VALID,208,VALID,0,
1999-10-26, 03:04:01,VALID,0,VALID,100,VALID,-0.0849042,VALID,18.2832,VALID,208,VALID,0,
1999-10-26, 03:05:00,VALID,0,VALID,100,VALID,-0.101885,VALID,18.2733,VALID,208,VALID,0,
1999-10-26, 03:06:00,VALID,0,VALID,100,VALID,-0.101885,VALID,18.274,VALID,208,VALID,0,
1999-10-26, 03:07:00,VALID,0,VALID,100,VALID,-0.101885,VALID,18.2641,VALID,208,VALID,0,
1999-10-26, 03:08:00,VALID,0,VALID,100,VALID,-0.0849042,VALID,18.2738,VALID,208,VALID,0,
1999-10-26, 03:09:00,VALID,0,VALID,100,VALID,-0.101885,VALID,18.277,VALID,209,VALID,0,
1999-10-26, 03:10:00,VALID,0,VALID,100,VALID,-0.101885,VALID,18.2768,VALID,209,VALID,0,
1999-10-26, 03:11:00,VALID,0,VALID,100,VALID,-0.0849042,VALID,18.2735,VALID,209,VALID,0,
1999-10-26, 03:12:00,VALID,0,VALID,100,VALID,-0.0679233,VALID,18.2735,VALID,209,VALID,0,
1999-10-26, 03:13:00,VALID,0,VALID,100,VALID,-0.101885,VALID,18.2927,VALID,209,VALID,0,
1999-10-26, 03:14:01,VALID,0,VALID,100,VALID,-0.0679233,VALID,18.2992,VALID,209,VALID,0,
1999-10-26, 03:15:00,VALID,0,VALID,100,VALID,-0.0679233,VALID,18.3123,VALID,209,VALID,0,
1999-10-26, 03:16:00,VALID,0,VALID,100,VALID,-0.0339617,VALID,18.3084,VALID,209,VALID,0,
1999-10-26, 03:17:00,VALID,0,VALID,100,VALID,-0.0169808,VALID,18.3147,VALID,209,VALID,0,
1999-10-26, 03:18:00,VALID,0,VALID,100,VALID,-0.0169808,VALID,18.3179,VALID,209,VALID,0,
1999-10-26, 03:19:00,VALID,0,VALID,100,VALID,0,VALID,18.3181,VALID,210,VALID,0,
1999-10-26, 03:20:00,VALID,0,VALID,100,VALID,0,VALID,18.3209,VALID,211,VALID,0,
1999-10-26, 03:21:00,VALID,0,VALID,100,VALID,-0.0339617,VALID,18.3336,VALID,214,VALID,0,
1999-10-26, 03:22:00,VALID,0,VALID,100,VALID,-0.0169808,VALID,18.3601,VALID,221,VALID,0,
1999-10-26, 03:23:00,VALID,0,VALID,100,VALID,0,VALID,18.3825,VALID,222,VALID,0,
1999-10-26, 03:24:00,VALID,0,VALID,100,VALID,0,VALID,18.3925,VALID,222,VALID,0,
1999-10-26, 03:25:00,VALID,0,VALID,100,VALID,-0.0339617,VALID,18.3821,VALID,222,VALID,0,
1999-10-26, 03:26:01,VALID,0,VALID,100,VALID,-0.0339617,VALID,18.3955,VALID,320,VALID,0,
1999-10-26, 03:27:00,VALID,0,VALID,100,VALID,-0.0339617,VALID,18.4024,VALID,318,VALID,0,
1999-10-26, 03:28:00,VALID,0,VALID,100,VALID,0,VALID,18.3989,VALID,318,VALID,0,
1999-10-26, 03:29:00,VALID,0,VALID,100,VALID,-0.0169808,VALID,18.4119,VALID,318,VALID,0,
1999-10-26, 03:30:00,VALID,0,VALID,100,VALID,-0.0169808,VALID,18.4026,VALID,318,VALID,0,
1999-10-26, 03:31:00,VALID,0,VALID,100,VALID,-0.0509425,VALID,18.3964,VALID,316,VALID,0,
1999-10-26, 03:32:00,VALID,0,VALID,100,VALID,-0.0339617,VALID,18.3765,VALID,294,VALID,0,
1999-10-26, 03:33:00,VALID,0,VALID,100,VALID,-0.0169808,VALID,18.3604,VALID,277,VALID,0,
1999-10-26, 03:34:00,VALID,0,VALID,100,VALID,-0.0509425,VALID,18.3444,VALID,260,VALID,0,
1999-10-26, 03:35:00,VALID,0,VALID,100,VALID,-0.0339617,VALID,18.3216,VALID,260,VALID,0,
1999-10-26, 03:36:00,VALID,0,VALID,100,VALID,-0.0169808,VALID,18.3149,VALID,260,VALID,0,
1999-10-26, 03:37:00,VALID,0,VALID,100,VALID,-0.0169808,VALID,18.292,VALID,260,VALID,0,
1999-10-26, 03:38:00,VALID,0,VALID,100,VALID,-0.0169808,VALID,18.2823,VALID,260,VALID,0,
1999-10-26, 03:39:00,VALID,0,VALID,100,VALID,-0.0339617,VALID,18.2694,VALID,260,VALID,0,
1999-10-26, 03:40:00,VALID,0,VALID,100,VALID,-0.0339617,VALID,18.2237,VALID,260,VALID,0,
1999-10-26, 03:41:00,VALID,0,VALID,100,VALID,-0.0849042,VALID,18.2248,VALID,260,VALID,0,
1999-10-26, 03:42:00,VALID,0,VALID,100,VALID,-0.0169808,VALID,18.2541,VALID,260,VALID,0,
1999-10-26, 03:43:00,VALID,0,VALID,100,VALID,-0.0679233,VALID,18.2671,VALID,260,VALID,0,
1999-10-26, 03:44:00,VALID,0,VALID,100,VALID,-0.0339617,VALID,18.2313,VALID,260,VALID,0,
1999-10-26, 03:45:00,VALID,0,VALID,100,VALID,-0.0509425,VALID,18.205,VALID,260,VALID,0,
1999-10-26, 03:46:00,VALID,0,VALID,100,VALID,-0.0169808,VALID,18.1858,VALID,260,VALID,0,
1999-10-26, 03:47:00,VALID,0,VALID,100,VALID,0,VALID,18.1761,VALID,260,VALID,0,
1999-10-26, 03:48:01,VALID,0,VALID,100,VALID,-0.0339617,VALID,18.1629,VALID,260,VALID,0,
1999-10-26, 03:49:00,VALID,0,VALID,100,VALID,0,VALID,18.1761,VALID,146,VALID,0,
1999-10-26, 03:50:00,VALID,0,VALID,100,VALID,-0.0339617,VALID,18.1539,VALID,96,VALID,0,
1999-10-26, 03:51:00,VALID,0,VALID,100,VALID,0,VALID,18.105,VALID,97,VALID,0,
1999-10-26, 03:52:00,VALID,0,VALID,100,VALID,-0.0169808,VALID,18.1022,VALID,97,VALID,0,
1999-10-26, 03:53:00,VALID,0,VALID,100,VALID,-0.0169808,VALID,18.1181,VALID,97,VALID,0,
1999-10-26, 03:54:00,VALID,0,VALID,100,VALID,-0.0169808,VALID,18.1248,VALID,97,VALID,0,
1999-10-26, 03:55:00,VALID,0,VALID,100,VALID,-0.0509425,VALID,18.1181,VALID,104,VALID,0,
1999-10-26, 03:56:00,VALID,0,VALID,100,VALID,-0.0849042,VALID,18.1151,VALID,109,VALID,0,
1999-10-26, 03:57:00,VALID,0,VALID,100,VALID,-0.0339617,VALID,18.0983,VALID,121,VALID,0.0503906,
1999-10-26, 03:58:01,VALID,0,VALID,100,VALID,-0.0339617,VALID,18.105,VALID,119,VALID,1.20551,
1999-10-26, 03:59:00,VALID,0,VALID,100,VALID,-0.0509425,VALID,18.1955,VALID,119,VALID,1.397,
1999-10-26, 04:00:00,VALID,0,VALID,100,VALID,-0.0169808,VALID,18.2408,VALID,120,VALID,1.4349,
1999-10-26, 04:01:00,VALID,0,VALID,100,VALID,-0.0679233,VALID,18.2992,VALID,109,VALID,0.711571,
1999-10-26, 04:02:00,VALID,0,VALID,100,VALID,-0.0339617,VALID,18.2994,VALID,32,VALID,0.697852,
1999-10-26, 04:03:00,VALID,0,VALID,100,VALID,-0.0169808,VALID,18.2987,VALID,338,VALID,0.616797,
1999-10-26, 04:04:00,VALID,0,VALID,100,VALID,-0.0509425,VALID,18.3317,VALID,320,VALID,0.487196,
1999-10-26, 04:05:00,VALID,0,VALID,100,VALID,-0.0339617,VALID,18.3507,VALID,344,VALID,0.0351563,
1999-10-26, 04:06:00,VALID,0,VALID,100,VALID,-0.0169808,VALID,18.3835,VALID,96,VALID,0,
1999-10-26, 04:07:00,VALID,0,VALID,100,VALID,-0.0509425,VALID,18.4061,VALID,84,VALID,0.718117,
1999-10-26, 04:08:00,VALID,0,VALID,100,VALID,0,VALID,18.4024,VALID,57,VALID,0.936914,
1999-10-26, 04:09:00,VALID,0,VALID,100,VALID,0,VALID,18.3835,VALID,339,VALID,0.352163,
1999-10-26, 04:10:01,VALID,0,VALID,100,VALID,-0.0679233,VALID,18.38,VALID,321,VALID,0.0870226,
1999-10-26, 04:11:00,VALID,0,VALID,100,VALID,-0.0169808,VALID,18.3798,VALID,83,VALID,0.194696,
1999-10-26, 04:12:00,VALID,0,VALID,100,VALID,-0.0169808,VALID,18.3798,VALID,119,VALID,0.854167,
1999-10-26, 04:13:00,VALID,0,VALID,100,VALID,-0.0339617,VALID,18.3606,VALID,100,VALID,0.794552,
1999-10-26, 04:14:00,VALID,0,VALID,100,VALID,-0.0509425,VALID,18.3412,VALID,38,VALID,0.661328,
1999-10-26, 04:15:00,VALID,0,VALID,100,VALID,-0.0679233,VALID,18.3345,VALID,360,VALID,0.360156,
1999-10-26, 04:16:00,VALID,0,VALID,100,VALID,-0.0509425,VALID,18.3449,VALID,358,VALID,0.00846354,
1999-10-26, 04:17:00,VALID,0,VALID,100,VALID,-0.0339617,VALID,18.3412,VALID,22,VALID,0,
1999-10-26, 04:18:00,VALID,0,VALID,100,VALID,-0.0679233,VALID,18.3181,VALID,69,VALID,0,
1999-10-26, 04:19:00,VALID,0,VALID,100,VALID,-0.0509425,VALID,18.3022,VALID,351,VALID,0,
1999-10-26, 04:20:01,VALID,0,VALID,100,VALID,-0.0339617,VALID,18.3218,VALID,320,VALID,0,
1999-10-26, 04:21:01,VALID,0,VALID,100,VALID,-0.0339617,VALID,18.3218,VALID,320,VALID,0,
1999-10-26, 04:22:00,VALID,0,VALID,100,VALID,-0.0679233,VALID,18.322,VALID,360,VALID,0,
1999-10-26, 04:23:00,VALID,0,VALID,100,VALID,-0.0509425,VALID,18.286,VALID,5,VALID,0.0448191,